EN

Hourly Weather Laguna Hills

Today, 24 July, Saturday

Time Temperature Precipitation Wind Pressure Humidity
00:00 +20°C° 0 mm 0 mps 750 mmHg 78%
01:00 +22°C° 0 mm 1 mps 750 mmHg 79%
02:00 +21°C° 0 mm 1 mps 750 mmHg 79%
03:00 +21°C° 0 mm 1 mps 750 mmHg 80%
04:00 +21°C° 0 mm 1 mps 749 mmHg 81%
05:00 +22°C° 0 mm 1 mps 750 mmHg 76%
06:00 +23°C° 0 mm 1 mps 750 mmHg 71%
07:00 +24°C° 0 mm 1 mps 750 mmHg 66%
08:00 +26°C° 0 mm 1 mps 750 mmHg 59%
09:00 +28°C° 0 mm 2 mps 750 mmHg 53%
10:00 +30°C° 0 mm 3 mps 750 mmHg 46%
11:00 +30°C° 0 mm 3 mps 750 mmHg 45%
12:00 +31°C° 0 mm 3 mps 750 mmHg 44%
13:00 +31°C° 0 mm 3 mps 750 mmHg 44%
14:00 +30°C° 0 mm 3 mps 749 mmHg 44%
15:00 +30°C° 0 mm 3 mps 749 mmHg 45%
16:00 +29°C° 0 mm 3 mps 749 mmHg 46%
17:00 +27°C° 0 mm 3 mps 749 mmHg 52%
18:00 +26°C° 0 mm 2 mps 749 mmHg 59%
19:00 +24°C° 0 mm 2 mps 749 mmHg 65%
20:00 +24°C° 0 mm 2 mps 749 mmHg 65%
21:00 +24°C° 0 mm 1 mps 749 mmHg 66%
22:00 +24°C° 0 mm 1 mps 749 mmHg 66%
23:00 +23°C° 0 mm 1 mps 749 mmHg 67%

Tomorrow, 25 July, Sunday

Time Temperature Precipitation Wind Pressure Humidity
00:00 +23°C° 0 mm 1 mps 749 mmHg 69%
01:00 +23°C° 0 mm 1 mps 749 mmHg 70%
02:00 +23°C° 0 mm 1 mps 749 mmHg 71%
03:00 +20°C° 0 mm 0 mps 749 mmHg 72%
04:00 +20°C° 0 mm 0 mps 749 mmHg 72%
05:00 +21°C° 0 mm 0 mps 749 mmHg 70%
06:00 +21°C° 0 mm 0 mps 749 mmHg 67%
07:00 +24°C° 0 mm 1 mps 750 mmHg 65%
08:00 +25°C° 0 mm 1 mps 750 mmHg 61%
09:00 +26°C° 0 mm 1 mps 750 mmHg 57%
10:00 +27°C° 0 mm 1 mps 750 mmHg 53%
11:00 +28°C° 0 mm 2 mps 749 mmHg 49%
12:00 +29°C° 0 mm 2 mps 749 mmHg 45%
13:00 +30°C° 0 mm 3 mps 749 mmHg 41%
14:00 +29°C° 0 mm 3 mps 748 mmHg 46%
15:00 +28°C° 0 mm 2 mps 748 mmHg 51%
16:00 +27°C° 0 mm 2 mps 748 mmHg 56%
17:00 +26°C° 0 mm 2 mps 748 mmHg 60%
18:00 +25°C° 0 mm 2 mps 748 mmHg 64%
19:00 +24°C° 0 mm 2 mps 748 mmHg 68%
20:00 +23°C° 0 mm 2 mps 749 mmHg 72%
21:00 +22°C° 0 mm 1 mps 749 mmHg 75%
22:00 +19°C° 0 mm 0 mps 749 mmHg 79%
23:00 +20°C° 0 mm 0 mps 748 mmHg 76%

Day after tomorrow, 26 July, Monday

Time Temperature Precipitation Wind Pressure Humidity
00:00 +22°C° 0 mm 1 mps 748 mmHg 74%
01:00 +22°C° 0 mm 1 mps 748 mmHg 72%
02:00 +23°C° 0 mm 1 mps 748 mmHg 70%
03:00 +23°C° 0 mm 1 mps 748 mmHg 69%
04:00 +23°C° 0 mm 1 mps 747 mmHg 67%
05:00 +24°C° 0 mm 1 mps 748 mmHg 64%
06:00 +24°C° 0 mm 1 mps 748 mmHg 61%
07:00 +25°C° 0 mm 1 mps 748 mmHg 58%
08:00 +27°C° 0 mm 2 mps 748 mmHg 52%
09:00 +29°C° 0 mm 2 mps 748 mmHg 47%
10:00 +31°C° 0 mm 3 mps 749 mmHg 41%
11:00 +31°C° 0 mm 3 mps 748 mmHg 41%
12:00 +33°C° 0 mm 3 mps 748 mmHg 40%
13:00 +33°C° 0 mm 4 mps 748 mmHg 39%
14:00 +33°C° 0 mm 4 mps 748 mmHg 42%
15:00 +31°C° 0 mm 3 mps 748 mmHg 44%
16:00 +30°C° 0 mm 3 mps 748 mmHg 47%
17:00 +28°C° 0 mm 3 mps 748 mmHg 52%
18:00 +27°C° 0 mm 2 mps 748 mmHg 57%
19:00 +25°C° 0 mm 2 mps 748 mmHg 62%
20:00 +24°C° 0 mm 1 mps 748 mmHg 64%
21:00 +24°C° 0 mm 1 mps 749 mmHg 66%
22:00 +23°C° 0 mm 1 mps 749 mmHg 68%
23:00 +23°C° 0 mm 1 mps 749 mmHg 69%

27 July, Tuesday

Time Temperature Precipitation Wind Pressure Humidity
00:00 +23°C° 0 mm 1 mps 749 mmHg 70%
01:00 +23°C° 0 mm 1 mps 749 mmHg 71%
02:00 +23°C° 0 mm 1 mps 749 mmHg 71%
03:00 +23°C° 0 mm 1 mps 748 mmHg 70%
04:00 +23°C° 0 mm 1 mps 748 mmHg 70%
05:00 +24°C° 0 mm 1 mps 749 mmHg 65%
06:00 +25°C° 0 mm 1 mps 749 mmHg 59%
07:00 +27°C° 0 mm 1 mps 749 mmHg 54%
08:00 +28°C° 0 mm 2 mps 749 mmHg 50%
09:00 +30°C° 0 mm 2 mps 749 mmHg 45%
10:00 +33°C° 0 mm 3 mps 750 mmHg 41%
11:00 +33°C° 0 mm 3 mps 749 mmHg 40%
12:00 +34°C° 0 mm 4 mps 749 mmHg 39%
13:00 +34°C° 0 mm 4 mps 749 mmHg 38%
14:00 +33°C° 0 mm 4 mps 749 mmHg 39%
15:00 +33°C° 0 mm 4 mps 749 mmHg 41%
16:00 +31°C° 0 mm 3 mps 749 mmHg 42%
17:00 +29°C° 0 mm 3 mps 749 mmHg 48%
18:00 +27°C° 0 mm 2 mps 749 mmHg 54%
19:00 +26°C° 0 mm 2 mps 749 mmHg 59%
20:00 +25°C° 0 mm 2 mps 750 mmHg 62%
21:00 +24°C° 0 mm 2 mps 750 mmHg 65%
22:00 +23°C° 0 mm 2 mps 750 mmHg 68%
23:00 +23°C° 0 mm 2 mps 750 mmHg 69%

28 July, Wednesday

Time Temperature Precipitation Wind Pressure Humidity
00:00 +23°C° 0 mm 2 mps 750 mmHg 69%
01:00 +23°C° 0 mm 2 mps 750 mmHg 70%
02:00 +23°C° 0 mm 2 mps 750 mmHg 70%
03:00 +23°C° 0 mm 2 mps 750 mmHg 70%
04:00 +23°C° 0 mm 2 mps 750 mmHg 70%
05:00 +24°C° 0 mm 2 mps 750 mmHg 65%
06:00 +25°C° 0 mm 2 mps 750 mmHg 60%
07:00 +26°C° 0 mm 2 mps 750 mmHg 55%
08:00 +28°C° 0 mm 2 mps 750 mmHg 49%
09:00 +30°C° 0 mm 3 mps 750 mmHg 44%
10:00 +33°C° 0 mm 3 mps 750 mmHg 38%
11:00 +34°C° 0 mm 4 mps 750 mmHg 37%
12:00 +34°C° 0 mm 4 mps 750 mmHg 35%
13:00 +35°C° 0 mm 5 mps 750 mmHg 34%
14:00 +34°C° 0 mm 4 mps 750 mmHg 35%
15:00 +33°C° 0 mm 4 mps 749 mmHg 36%
16:00 +33°C° 0 mm 4 mps 749 mmHg 37%
17:00 +30°C° 0 mm 4 mps 749 mmHg 42%
18:00 +28°C° 0 mm 3 mps 749 mmHg 47%
19:00 +26°C° 0 mm 2 mps 749 mmHg 53%
20:00 +25°C° 0 mm 2 mps 749 mmHg 55%
21:00 +24°C° 0 mm 2 mps 749 mmHg 57%
22:00 +24°C° 0 mm 1 mps 750 mmHg 59%
23:00 +24°C° 0 mm 1 mps 749 mmHg 60%

29 July, Thursday

Time Temperature Precipitation Wind Pressure Humidity
00:00 +23°C° 0 mm 1 mps 749 mmHg 61%
01:00 +23°C° 0 mm 1 mps 749 mmHg 62%
02:00 +23°C° 0 mm 1 mps 749 mmHg 64%
03:00 +22°C° 0 mm 1 mps 749 mmHg 65%
04:00 +22°C° 0 mm 1 mps 749 mmHg 67%
05:00 +24°C° 0 mm 1 mps 749 mmHg 60%
06:00 +26°C° 0 mm 1 mps 749 mmHg 53%
07:00 +27°C° 0 mm 1 mps 749 mmHg 46%
08:00 +29°C° 0 mm 2 mps 749 mmHg 41%
09:00 +31°C° 0 mm 2 mps 748 mmHg 36%
10:00 +34°C° 0 mm 3 mps 748 mmHg 31%
11:00 +35°C° 0 mm 3 mps 748 mmHg 31%
12:00 +36°C° 0 mm 4 mps 748 mmHg 30%
13:00 +36°C° 0 mm 4 mps 747 mmHg 29%
14:00 +36°C° 0 mm 4 mps 747 mmHg 30%
15:00 +35°C° 0 mm 4 mps 747 mmHg 30%
16:00 +35°C° 0 mm 4 mps 747 mmHg 31%
17:00 +32°C° 0 mm 4 mps 747 mmHg 37%
18:00 +29°C° 0 mm 3 mps 747 mmHg 43%
19:00 +27°C° 0 mm 2 mps 747 mmHg 49%
20:00 +26°C° 0 mm 2 mps 748 mmHg 52%
21:00 +25°C° 0 mm 1 mps 748 mmHg 54%
22:00 +24°C° 0 mm 1 mps 748 mmHg 57%
23:00 +24°C° 0 mm 1 mps 748 mmHg 58%
Show more